Location: Carrizalito
(10.3833°N, 67.0217°W)
Time: 15:00:53
(UTC+00:00)

XW-2F - Visible Passes

Search period start: 20 March 2023 00:00
Search period end: 30 March 2023 00:00
Orbit: 460 x 478 km, 97.5° (Epoch: 20 March)

Date Brightness Start Highest point End Pass type
(mag) Time Alt. Az. Time Alt. Az. Time Alt. Az.
21 Mar ? 09:58:23 10° ENE 10:00:02 13° E 10:01:43 10° SE visible
21 Mar ? 23:21:58 10° SW 23:23:51 14° W 23:25:46 10° WNW visible
22 Mar ? 22:51:27 10° S 22:54:46 42° W 22:58:03 10° NNW visible
24 Mar ? 10:03:27 10° ENE 10:05:38 16° E 10:07:50 10° SE visible
24 Mar ? 23:28:07 10° WSW 23:29:20 11° W 23:30:34 10° WNW visible
25 Mar ? 22:56:51 10° SSW 23:00:02 34° W 23:03:13 10° NNW visible
28 Mar ? 23:01:41 10° SSW 23:04:43 29° W 23:07:45 10° NW visible
